Вернуться в каталог

SL-6 R/B(2)

АктивенHEO
NORAD 10485·ROCKET BODY·🇷🇺 Russia

Запущен Oct 28, 1977 с Plesetsk Cosmodrome

Loading…

Ближайшие Пролёты (ближайшие 24 часа)

TLE

СвежийSource: Space-Track

Эпоха: Sep 13, 2026, 19:28 UTC

1 10485U 77105E   26256.81179784 -.00000326  00000-0  00000-0 0  9996
2 10485  63.9083 205.5170 6857670 278.7586  15.0287  1.97313552351908

Отслеживайте SL-6 R/B(2) в реальном времени с AllMySat

Download on the App Store